Flag for Norway Weather past 2 weeks in Fevik, Norway

Now
62 °F

Cool.


Feels Like: 62 °F
Forecast: 58 / 73 °F
Wind: 10 mph from Southwest

Location: Torungen Fyr

Current Time: Jul 3, 2015 at 7:50:07 PM

Latest Report: Jul 3, 2015 at 7:00 PM


Visibility: N/A

Pressure: 30.21 "Hg

Humidity: 95%

Dew point: 60 °F

Location of FevikLocation

Historic Weather in Fevik — Graph

°F

Fevik temperature yesterday

Maximum temperature yesterday: 67 °F (at 7:00 PM)
Minimum temperature yesterday: 58 °F (at 4:00 AM)
Average temperature yesterday: 63 °F

Past Weeks' High & Low Weather Summary

 TemperatureHumidityPressure
High69 °F (Jun 24, 4:00 PM)97% (Jun 28, 6:00 AM)30.34 "Hg (Jun 28, 6:00 AM)
Low50 °F (Jun 22, 5:00 AM)34% (Jun 25, 3:00 PM)29.62 "Hg (Jun 18, 6:00 PM)
Average59 °F75%29.96 "Hg
* Reported Jun 18 6:00 PM — Jul 3 6:00 PM, Fevik, Weather by CustomWeather, © 2015

Note: Actual official high and low records may vary slightly from our data, if they occured in-between our weather recording intervals... More about our weather records

Advertising

Fevik weather history for previous 24 hours

 ConditionsComfort  
Time TempWeatherWind HumidityBarometerVisibility
6:00 PM
Fri, Jul 3
63 °FMild.9 mph92%30.23 "HgN/A
5:00 PM65 °FMild.9 mph88%30.24 "HgN/A
4:00 PM66 °FMild.7 mph84%30.25 "HgN/A
3:00 PM67 °FMild.6 mph81%30.26 "HgN/A
2:00 PM67 °FMild.6 mph78%30.26 "HgN/A
1:00 PM67 °FMild.3 mph73%30.25 "HgN/A
12:00 PM66 °FMild.1 mph75%30.26 "HgN/A
11:00 AM65 °FMild.1 mph77%30.26 "HgN/A
10:00 AM65 °FMild.2 mph78%30.25 "HgN/A
9:00 AM65 °FMild.2 mph79%30.25 "HgN/A
8:00 AM64 °FMild.5 mph79%30.25 "HgN/A
7:00 AM64 °FMild.3 mph79%30.24 "HgN/A
6:00 AM64 °FMild.5 mph81%30.24 "HgN/A
5:00 AM64 °FMild.3 mph80%30.26 "HgN/A
4:00 AM64 °FMild.2 mph74%30.27 "HgN/A
3:00 AM65 °FMild.5 mph69%30.27 "HgN/A
2:00 AM65 °FMild.8 mph73%30.27 "HgN/A
1:00 AM65 °FMild.8 mph71%30.28 "HgN/A
12:00 AM65 °FMild.1 mph68%30.29 "HgN/A
11:00 PM
Thu, Jul 2
66 °FMild.3 mph62%30.29 "HgN/A
10:00 PM66 °FMild.2 mph70%30.28 "HgN/A
9:00 PM67 °FMild.2 mph67%30.27 "HgN/A
8:00 PM67 °FMild.2 mph70%30.28 "HgN/A
7:00 PM67 °FMild.3 mph72%30.27 "HgN/A
Weather by CustomWeather, © 2015

See weather overviewHow to use our weather pages